St. Cloud, MN

1:36 AM CST on December 10, 2019 (GMT -0600)
Saint Cloud Regional

Weather History for KSTC - May, 2019

Change the Weather History Date:

Thursday, May 16, 2019

  Actual Average Record
Temperature  
Mean Temperature 62 °F 57 °F  
Max Temperature 75 °F 69 °F 94 °F (1934)
Min Temperature 50 °F 44 °F 30 °F (1956)
Degree Days  
Heating Degree Days 2 9  
Month to date heating degree days 248 180  
Since 1 July heating degree days 9046 8347  
Cooling Degree Days 0 1  
Month to date cooling degree days 0 8  
Year to date cooling degree days 0 10  
Growing Degree Days 12 (Base 50)    
Moisture  
Dew Point 49 °F    
Average Humidity 57    
Maximum Humidity 87    
Minimum Humidity 44    
Precipitation  
Precipitation 0.00 in 0.09 in 5.00 in (1894)
Month to date precipitation 1.38 1.50  
Year to date precipitation 8.73 6.86  
Snow  
Snow 0.00 in 0.00 in T in (1943)
Month to date snowfall 0.4 0.0  
Since 1 July snowfall 68.9 45.7  
Snow Depth 0.00 in    
Sea Level Pressure  
Sea Level Pressure 29.75 in    
Wind  
Wind Speed 10 mph ()    
Max Wind Speed 20 mph    
Max Gust Speed 28 mph    
Visibility 10.0 miles    
Events Thunderstorm    
T = Trace of Precipitation, MM = Missing Value Source: Averaged Metar Reports

Daily Weather History Graph

Daily Weather History Graph

Search for Another Location

Airport or City:

Astronomy

May. 16, 2019 Rise Set
Actual Time 5:44 AM CDT 8:41 PM CDT
Civil Twilight 5:09 AM CDT 9:16 PM CDT
Nautical Twilight 4:25 AM CDT 10:00 PM CDT
Astronomical Twilight 3:32 AM CDT 10:54 PM CDT
Moon 6:11 PM CDT (5/16) 4:55 AM CDT (5/16)
Length of Visible Light 16h 06m
Length of Day
14h 56m
Waxing Gibbous, 94% of the Moon is Illuminated
May 16
Waxing Gibbous
May 18
Full
May 26
Last Quarter
Jun 3
New
Jun 10
First Quarter

Hourly Weather History & Observations

Time (CDT) Temp. Dew Point Humidity Pressure Visibility Wind Dir Wind Speed Gust Speed Precip Events Conditions
12:53 AM 68.0 °F 48.9 °F 50% 29.65 in 10.0 mi South 12.7 mph - N/A   Partly Cloudy
1:51 AM 69.8 °F 50.0 °F 49% 29.63 in 10.0 mi South 19.6 mph - N/A Thunderstorm Mostly Cloudy
1:53 AM 69.1 °F 50.0 °F 51% 29.65 in 10.0 mi SSW 17.3 mph - N/A Thunderstorm Mostly Cloudy
2:07 AM 70.0 °F 51.1 °F 51% 29.65 in 10.0 mi SW 10.4 mph - N/A   Mostly Cloudy
2:53 AM 70.0 °F 52.0 °F 53% 29.67 in 10.0 mi SW 16.1 mph 23.0 mph N/A   Mostly Cloudy
3:53 AM 64.9 °F 54.0 °F 68% 29.65 in 10.0 mi WSW 9.2 mph - N/A   Scattered Clouds
4:53 AM 60.1 °F 54.0 °F 80% 29.65 in 10.0 mi SSW 5.8 mph - N/A   Clear
5:53 AM 57.9 °F 54.0 °F 87% 29.66 in 10.0 mi South 5.8 mph - N/A   Clear
6:53 AM 62.1 °F 57.0 °F 84% 29.68 in 10.0 mi SW 3.5 mph - N/A   Clear
7:53 AM 66.9 °F 57.0 °F 70% 29.68 in 10.0 mi West 4.6 mph - N/A   Clear
8:53 AM 70.0 °F 55.9 °F 61% 29.70 in 10.0 mi NNW 10.4 mph - N/A   Clear
9:53 AM 71.1 °F 55.0 °F 57% 29.71 in 10.0 mi North 12.7 mph - N/A   Clear
10:53 AM 72.0 °F 55.0 °F 55% 29.73 in 10.0 mi NNW 12.7 mph 21.9 mph N/A   Clear
11:53 AM 72.0 °F 53.1 °F 51% 29.75 in 10.0 mi NNW 12.7 mph - N/A   Clear
12:53 PM 72.0 °F 51.1 °F 48% 29.75 in 10.0 mi NNE 9.2 mph 23.0 mph N/A   Clear
1:53 PM 73.0 °F 52.0 °F 48% 29.75 in 10.0 mi North 11.5 mph 19.6 mph N/A   Partly Cloudy
2:53 PM 70.0 °F 51.1 °F 51% 29.78 in 10.0 mi North 15.0 mph 25.3 mph N/A   Scattered Clouds
3:53 PM 68.0 °F 48.9 °F 50% 29.79 in 10.0 mi North 13.8 mph 24.2 mph N/A   Clear
4:53 PM 69.1 °F 46.9 °F 45% 29.81 in 10.0 mi North 13.8 mph 25.3 mph N/A   Clear
5:53 PM 66.9 °F 45.0 °F 45% 29.83 in 10.0 mi North 15.0 mph 23.0 mph N/A   Partly Cloudy
6:53 PM 63.0 °F 43.0 °F 48% 29.84 in 10.0 mi NNW 15.0 mph 21.9 mph N/A   Clear
7:53 PM 60.1 °F 39.9 °F 47% 29.86 in 10.0 mi North 12.7 mph - N/A   Clear
8:53 PM 57.9 °F 37.9 °F 47% 29.87 in 10.0 mi North 9.2 mph - N/A   Clear
9:53 PM 55.0 °F 39.0 °F 55% 29.88 in 10.0 mi North 4.6 mph - N/A   Clear
10:53 PM 52.0 °F 39.0 °F 61% 29.88 in 10.0 mi North 5.8 mph - N/A   Clear
11:53 PM 51.1 °F 39.0 °F 63% 29.88 in 10.0 mi North 5.8 mph - N/A   Clear